カタログに戻る

COSMOS 1852

運用中軍事LEO
NORAD 18113·PAYLOAD·🇷🇺 Russia

打ち上げ Jun 16, 1987 から Plesetsk Cosmodrome

Loading…

次のパス (今後24時間)

TLE

最新Source: Space-Track

元期: Sep 14, 2026, 07:38 UTC

1 18113U 87051A   26257.31866954 -.00000009  00000-0  50356-4 0  9992
2 18113  74.0081   6.4274 0016675 175.0205 185.1012 12.44886877783522

AllMySatでCOSMOS 1852をリアルタイム追跡

Download on the App Store